SL-16 DEB, 22509

Orbit data source: Space-Track

SL-16 DEB, 22509 is space debris in LEO originally from a launch on Fri, 25 Dec 1992 UTC launched from the Tyuratam Missile And Space Complex (TTMTR). Debris objects in space refer to the collection of defunct objects orbiting the Earth. Examples of debris include non-operational satellites, rocket bodies, and fragments generated from explosions, collisions, or faulty payload assembly.

Loading next visibility...
Identifier
22509, 1992-093GU
Orbit
LEO
Country
Flag of CISCIS
Related business
Manufacturer
Unknown
Mission
Spacecraft
Bus & Motor
Unknown
Mass
Unknown
Launch date (UTC)
1992-12-25 (33 years ago)
Launch vehicle
Unknown
Launch site
Tyuratam Missile And Space Complex (TTMTR)
Object type
Payload
Rocket body
Debris
Shape & HBR
Unknown shape, 0.1 m
Radar Cross Section
Small (<0.1 m²)

Expand to show TLE details & history
Last TLE update: 2 days ago

TLE from 2 days ago
0 SL-16 DEB
1 22509U 92093GU  25296.86079117  .00005162  00000-0  21005-2 0  9998
2 22509  71.1277  90.3826 0103567 134.0837  17.3096 14.25033749681752
Epoch: 2025-10-23T20:39Z
TLE epoch observation values (Epoch: 2025-10-23T20:39:32.357Z)
Latitude
26.65382°
Longitude
-81.84243°
Altitude
740.128 km
Speed
7.524 km/s
True Right ascension
17h 22m 13s
True Declination
26° 30' 57"
Sunlit
Object was in daylight at epoch
Visualization orbit readout
Latitude
Unknown
Longitude
Unknown
Altitude
Unknown
Speed
Unknown
Apparent Right ascension
Unknown
Apparent Declination
Unknown
Sunlit
N/A
Visualization observer readout
Local Sidereal Time
16:52:39
Azimuth
Unknown
Elevation
Unknown
Doppler factor
Unknown
Orbital elements
Apogee altitude
880.688 km
Perigee altitude
731.874 km
Semi-major axis
7,184.418 km
Eccentricity
0.01036
Inclination
71.1277°
RAAN
90.3826°
Arg. of periapsis
134.0837°
True anomaly
17.66713°
Mean anomaly
17.3096°
Eccentric anomaly
17.48792°
Mean motion
3.56415 °/min
Orbital period
101.01 mins
BSTAR
0.0021005
Loading maneuver chart data...
Computing Atmospheric mass density...
Loading historical data...
Loading historical data...
Loading historical data...
Loading historical data...
Loading historical data...
Loading historical data...
Loading historical data...

Documentation

Showing up to 5 results
|